Location: Nebula Knoll Observatory
(43.6666°N, 71.0000°W)
Time: 17:32:16
(UTC-04:00)

Daily predictions for brighter satellites

Satellite Brightness Start Highest point End
(mag) Time Altitude Azimuth Time Altitude Azimuth Time Altitude Azimuth
ERS-1 Rocket 3.0 20:39:27 10° SSE 20:44:28 80° ENE 20:49:30 10° NNW
Cosmos 2278 Rocket 2.7 20:39:01 10° NNW 20:44:37 61° WSW 20:50:11 10° S
Cosmos 2233 Rocket 4.3 20:39:38 10° NNW 20:45:54 74° W 20:52:04 10° S
Milstar 3 Cent rocket 4.1 20:40:54 10° WSW 20:46:04 18° SSW 20:49:51 10° SSE
USA 234 3.6 20:41:38 10° ESE 20:48:06 65° NNE 20:54:37 10° NW
Cosmos 1939 Rocket 3.3 20:44:49 10° SSE 20:48:51 52° ENE 20:52:54 10° N
SL-24 R/B - RUBIN 2 4.2 20:45:50 10° SSW 20:51:10 67° ESE 20:57:14 10° NE
Cosmos 1464 Rocket 4.1 20:46:51 10° N 20:52:55 60° E 20:58:59 10° SSE
Cosmos 1726 Rocket 3.6 20:49:11 10° N 20:53:40 87° ENE 20:58:06 10° S
Cosmos 2369 Rocket 4.1 20:55:30 10° N 20:59:09 17° NE 21:02:47 10° E
Cosmos 2219 Rocket 3.8 20:55:27 10° SW 21:00:44 40° WNW 21:06:03 10° NNE
PSLV R/B 3.8 20:57:57 10° SE 21:00:51 40° ENE 21:03:48 10° N
Cosmos 2058 Rocket 3.0 20:57:33 10° N 21:01:58 82° E 21:06:20 10° S
Lacrosse 5 rocket 1.2 21:00:07 10° SW 21:03:58 85° SE 21:08:03 10° NE
SL-16 R/B 2.2 20:59:07 10° SSW 21:04:44 72° ESE 21:10:23 10° NNE
deb Chang Zheng 4 3.8 21:05:05 10° N 21:09:31 79° WNW 21:13:53 10° SSW
Cosmos 2034 Rocket 4.2 21:03:46 10° N 21:10:07 62° E 21:16:22 10° SSE
Cosmos 1666 2.8 21:06:33 10° N 21:10:26 61° E 21:14:15 10° SSE
ARGOS 4.2 21:06:41 11° SE 21:11:13 31° ENE 21:15:57 10° N
Cosmos 1602 Rocket 4.1 21:08:40 10° SSE 21:12:52 42° E 21:17:06 10° NNE
Abrixas rocket 2.3 21:09:35 10° WNW 21:13:01 89° NNE 21:15:54 14° ESE
H-2A R/B 3.9 21:10:32 10° E 21:13:27 16° ENE 21:16:24 10° NNE
Meteor 1-23 Rocket 4.2 21:07:55 10° S 21:13:33 85° E 21:19:17 10° NNE
UNK 4.5 21:08:49 10° NNE 21:13:59 47° E 21:19:22 10° S
Okean 2 3.4 21:09:56 10° S 21:14:07 85° E 21:18:20 10° N
Aureole 2 Rocket 2.9 21:11:16 10° S 21:15:08 47° ESE 21:18:41 10° NNE
Cosmos 1743 4.1 21:15:50 10° NNW 21:19:26 38° W 21:23:00 10° SSW
Cosmos 494 Rocket 3.9 21:15:01 10° SSW 21:20:07 86° ESE 21:25:16 10° NNE
SPOT 1/Viking Rocket 4.0 21:17:07 13° SE 21:21:25 45° ENE 21:26:19 10° N
Cosmos 1812 Rocket 4.2 21:17:44 10° N 21:21:52 40° ENE 21:25:03 16° SE
Cosmos 1461 3.3 21:19:50 10° NNW 21:24:08 55° NE 21:27:10 17° SE
Cosmos 1603 3.9 21:28:05 10° S 21:33:27 48° ESE 21:38:49 10° NE
MetOp-B 4.1 21:28:40 13° SSE 21:33:30 80° ENE 21:38:53 10° NNW
CZ-4 R/B 4.4 21:30:54 10° NNE 21:35:35 40° E 21:39:16 16° SSE
H-2A R/B 3.6 21:32:59 10° SSW 21:36:48 33° W 21:40:43 10° NNW
Meteor 2-4 Rocket 4.4 21:32:54 10° SSW 21:38:41 61° WNW 21:44:34 10° N
SPOT 5 3.0 21:38:18 11° S 21:42:32 61° WSW 21:46:50 10° NNW
Cosmos 1626 Rocket 3.6 21:42:23 10° S 21:46:51 85° W 21:51:18 10° N
Cosmos 1302 Rocket 4.4 21:42:08 10° NNW 21:47:18 62° WSW 21:51:34 15° S
APEX 4.2 21:49:51 10° NW 21:53:41 49° WSW 21:57:10 18° S
Meteor 2-12 Rocket 4.4 21:48:11 10° N 21:54:18 74° E 21:58:39 20° SSE
SeaSat 1 3.5 21:53:09 12° S 21:57:16 38° WSW 22:01:52 10° NW
Lacrosse 5 4.3 21:54:00 10° WNW 21:58:08 24° NNW 22:02:17 10° NE
CZ-4B R/B 3.5 21:53:32 10° NNE 21:58:36 86° WNW 22:03:45 10° SSW
Landsat 7 4.2 21:56:50 25° SE 21:59:20 48° ENE 22:03:56 10° N
ATLAS CENTAUR R/B 4.1 21:55:34 10° WSW 21:59:54 29° NW 22:04:17 10° NNE
Cosmos 1943 3.9 21:57:45 23° SSE 22:00:15 33° ESE 22:05:18 10° NE
Cosmos 1953 Rocket 4.4 22:01:19 27° SE 22:02:43 34° E 22:06:42 10° NNE
DELTA 2 DEB (DPAF) 4.2 22:02:45 28° SSE 22:05:02 66° ENE 22:09:31 10° N
Cosmos 1766 4.4 22:10:12 10° NNE 22:13:44 29° ENE 22:14:37 27° E
Tsikada Rocket 4.5 22:08:37 10° SSW 22:14:58 63° W 22:21:19 10° N
YAOGAN 6 3.6 22:13:00 21° SSW 22:15:06 43° W 22:18:41 10° NNW
Terra 2.2 22:13:06 29° SE 22:15:08 48° ENE 22:19:44 10° N
Cosmos 1943 Rocket 3.7 22:11:47 10° N 22:16:16 25° NE 22:19:29 15° E
Atlas Centaur 2 3.8 22:11:56 10° SW 22:18:37 28° SSE 22:20:37 26° SE
CZ-4C R/B 3.4 22:17:57 33° S 22:19:51 86° WSW 22:24:02 10° NNW
COSMOS 2455 2.8 22:14:33 10° SSW 22:20:31 73° ESE 22:26:32 10° NE
ATLAS 3B R/B 3.3 22:18:09 20° S 22:22:58 43° ESE 22:29:59 10° NE
USA 81 4.1 22:19:52 10° N 22:25:11 83° W 22:28:04 28° S
SL-08 RB Rocket 3.9 22:23:10 29° S 22:25:26 68° WSW 22:30:00 10° NNW
Cosmos 407 Rocket 4.0 22:25:05 33° SE 22:26:29 40° ESE 22:31:21 10° NE
IGS 5A 3.6 22:29:33 43° SE 22:30:40 60° ENE 22:34:46 10° N
Cosmos-2242 4.0 22:26:58 10° N 22:30:56 32° ENE 22:31:50 29° E
USA 234 4.0 22:27:51 24° S 22:31:18 41° SW 22:37:27 10° WNW
Cosmos 1758 Rocket 3.5 22:36:07 45° SSE 22:37:16 65° E 22:41:37 10° NNE
Cosmos 1953 3.4 22:37:23 10° NNE 22:40:57 30° ENE 22:41:17 30° E
CARTOSAT-1 3.5 22:40:38 46° S 22:41:54 86° WSW 22:46:15 10° NNW
SL-24 R/B 4.4 22:38:15 10° N 22:43:07 75° E 22:44:56 40° S
Lacrosse 5 rocket 4.0 22:40:35 10° WNW 22:43:45 22° NNW 22:47:01 10° NNE
Cosmos 2369 Rocket 2.1 22:38:19 10° NNW 22:44:02 89° NE 22:46:13 39° SSE
SAR-Lupe-2 3.8 22:47:10 52° SW 22:47:41 59° W 22:51:14 10° NNW
Lacrosse 4 Rocket 1.9 22:50:40 40° E 22:50:40 40° E 22:53:57 10° NE
ARGOS 4.2 22:48:12 20° SSW 22:51:20 38° W 22:56:23 10° NNW
Cosmos 1805 4.3 22:48:05 10° N 22:51:41 32° ENE 22:51:49 32° E
H-2A R/B 2.0 22:50:29 40° S 22:52:15 71° WSW 22:57:18 10° NNW
Meteor 1-22 Rocket 4.3 22:47:24 10° NNW 22:52:54 72° W 22:55:18 36° S
Cosmos 1825 Rocket 4.5 22:54:01 24° SW 22:56:23 46° WNW 23:00:41 10° N
Nadezhda 4 Rocket 4.4 22:57:40 37° SE 22:59:34 47° E 23:05:36 10° NNE
COSMOS 2406 4.2 23:02:11 28° ESE 23:02:12 28° ESE 23:06:59 10° NE
Cosmos 2263 4.1 22:57:22 10° NNW 23:03:00 89° WSW 23:04:44 47° SSE
DMSP B5D2-2 4.1 22:59:26 10° N 23:04:45 79° WNW 23:07:02 35° SSW
Cosmos 1842 Rocket 4.3 23:01:43 10° N 23:05:49 38° ENE 23:06:09 37° E
Cosmos 1346 Rocket 3.7 23:10:07 34° WSW 23:11:11 42° WNW 23:14:57 10° N
Cosmos 1190 Rocket 4.5 23:14:26 26° SW 23:17:23 60° WNW 23:22:40 10° NNE
Cosmos 1758 3.2 23:20:20 10° N 23:24:28 86° W 23:24:30 86° WSW
Cosmos 2279 Rocket 4.4 23:19:43 10° NNW 23:25:48 55° W 23:28:18 34° SSW
Cosmos 1842 3.8 23:32:29 48° W 23:32:46 49° WNW 23:36:36 10° N
Cosmos 1707 4.4 23:33:48 24° ENE 23:33:48 24° ENE 23:36:15 10° NNE
Cosmos 676 Rocket 4.2 23:31:29 42° SW 23:33:18 72° WNW 23:38:39 10° NNE
Meteor 2-5 Rocket 4.2 23:39:51 44° ESE 23:40:43 48° E 23:46:17 10° NNE
Cosmos 1943 4.4 23:39:28 13° WSW 23:44:12 39° WNW 23:49:33 10° NNE
Cosmos 1023 Rocket 4.4 23:45:10 67° SSE 23:45:46 76° ESE 23:51:04 10° NNE
Cosmos 1932 4.3 23:45:41 52° S 23:47:13 74° ESE 23:53:27 10° NE
Cosmos 1140 Rocket 3.3 23:49:49 69° S 23:50:27 83° ESE 23:55:44 10° NNE
Terra 3.7 23:51:59 18° WSW 23:53:08 19° W 23:56:31 10° NW
